Location: Lafig�re
(44.4503°N, 4.0357°E)
Time: 16:41:15
(UTC+00:00)

ATLAS 2AS CENTAUR R/B - Pass Details

Date: 24 September 2020
Orbit: 939 x 1273 km, 63.7° (Epoch: 19 October)

Event Time Altitude Azimuth Distance (km) Brightness Sun altitude
Rises 18:23:11 0° 184° (S) 4,167 5.8 -9.1°
Reaches altitude 10° 18:26:10 10° 176° (S) 3,229 5.1 -9.6°
Maximum altitude 18:33:11 37° 113° (ESE) 1,882 3.5 -10.8°
Drops below altitude 10° 18:40:15 10° 50° (NE) 3,253 4.9 -12.1°
Sets 18:43:15 0° 42° (NE) 4,202 5.5 -12.6°
